| time (UTC) | temp F | wind direction | speed MPH | gust MPH | rain 1hr in | rain 24hr in | rain mn in | humidity % | barometer mb |
| 20260505035607 | 73 | 140 | 4.0 | 9.0 | 0.00 | 0.00 | 0.00 | 77 | 1006.6 |
| 20260505035103 | 73 | 128 | 4.0 | 9.0 | 0.00 | 0.00 | 0.00 | 77 | 1006.9 |
| 20260505034604 | 73 | 206 | 4.0 | 9.0 | 0.00 | 0.00 | 0.00 | 77 | 1006.8 |
| 20260505034105 | 73 | 206 | 4.0 | 11.0 | 0.00 | 0.00 | 0.00 | 76 | 1006.6 |
| 20260505033603 | 73 | 203 | 4.0 | 11.0 | 0.00 | 0.00 | 0.00 | 76 | 1006.6 |
| 20260505033109 | 74 | 108 | 4.0 | 11.0 | 0.00 | 0.00 | 0.00 | 76 | 1006.7 |
| 20260505032723 | 74 | 163 | 3.0 | 12.0 | 0.00 | 0.00 | 0.00 | 75 | 1006.9 |
| 20260505032609 | 74 | 166 | 3.0 | 11.0 | 0.00 | 0.00 | 0.00 | 75 | 1006.9 |
| 20260505032603 | 74 | 101 | 4.0 | 11.0 | 0.00 | 0.00 | 0.00 | 76 | 1006.7 |
| 20260505031103 | 74 | 121 | 4.0 | 12.0 | 0.00 | 0.00 | 0.00 | 75 | 1006.9 |
| 20260505030604 | 74 | 130 | 4.0 | 12.0 | 0.00 | 0.00 | 0.00 | 75 | 1006.9 |
| 20260505030104 | 74 | 181 | 5.0 | 12.0 | 0.00 | 0.00 | 0.00 | 75 | 1006.9 |
| 20260505025603 | 74 | 225 | 5.0 | 12.0 | 0.00 | 0.00 | 0.00 | 75 | 1006.7 |
| 20260505025104 | 74 | 120 | 4.0 | 12.0 | 0.00 | 0.00 | 0.00 | 74 | 1006.6 |
| 20260505024601 | 74 | 119 | 3.0 | 12.0 | 0.00 | 0.00 | 0.00 | 74 | 1006.7 |
| 20260505024103 | 74 | 152 | 3.0 | 13.0 | 0.00 | 0.00 | 0.00 | 74 | 1006.6 |
| 20260505023601 | 74 | 191 | 3.0 | 13.0 | 0.00 | 0.00 | 0.00 | 74 | 1006.5 |
| 20260505023100 | 74 | 107 | 4.0 | 13.0 | 0.00 | 0.00 | 0.00 | 74 | 1006.5 |
| 20260505022601 | 74 | 195 | 4.0 | 13.0 | 0.00 | 0.00 | 0.00 | 74 | 1006.4 |
| 20260505022101 | 74 | 134 | 4.0 | 10.0 | 0.00 | 0.00 | 0.00 | 74 | 1006.5 |
| 20260505021603 | 74 | 115 | 4.0 | 10.0 | 0.00 | 0.00 | 0.00 | 73 | 1006.4 |
| 20260505021102 | 74 | 150 | 4.0 | 9.0 | 0.00 | 0.00 | 0.00 | 73 | 1006.4 |
| 20260505020600 | 74 | 126 | 4.0 | 9.0 | 0.00 | 0.00 | 0.00 | 73 | 1006.4 |
| 20260505020104 | 75 | 147 | 3.0 | 11.0 | 0.00 | 0.00 | 0.00 | 72 | 1006.4 |
| 20260505020100 | 75 | 119 | 4.0 | 11.0 | 0.00 | 0.00 | 0.00 | 73 | 1006.4 |
| 20260505015717 | 75 | 154 | 3.0 | 8.0 | 0.00 | 0.00 | 0.00 | 72 | 1006.5 |
| 20260505014555 | 75 | 118 | 4.0 | 8.0 | 0.00 | 0.00 | 0.00 | 72 | 1006.4 |
| 20260505014056 | 75 | 108 | 3.0 | 8.0 | 0.00 | 0.00 | 0.00 | 72 | 1006.3 |
| 20260505013556 | 75 | 121 | 2.0 | 11.0 | 0.00 | 0.00 | 0.00 | 71 | 1006.3 |
| 20260505013055 | 75 | 129 | 2.0 | 11.0 | 0.00 | 0.00 | 0.00 | 71 | 1006.4 |
| 20260505012600 | 76 | 195 | 4.0 | 11.0 | 0.00 | 0.00 | 0.00 | 70 | 1006.3 |
| 20260505012554 | 76 | 188 | 3.0 | 11.0 | 0.00 | 0.00 | 0.00 | 70 | 1006.4 |
| 20260505011552 | 76 | 76 | 3.0 | 9.0 | 0.00 | 0.00 | 0.00 | 70 | 1006.4 |
| 20260505011051 | 76 | 112 | 3.0 | 11.0 | 0.00 | 0.00 | 0.00 | 69 | 1006.4 |
| 20260505010556 | 76 | 124 | 3.0 | 9.0 | 0.00 | 0.00 | 0.00 | 69 | 1006.4 |
| 20260505010551 | 76 | 169 | 3.0 | 11.0 | 0.00 | 0.00 | 0.00 | 69 | 1006.4 |
| 20260505005551 | 76 | 134 | 3.0 | 14.0 | 0.00 | 0.00 | 0.00 | 68 | 1006.5 |
| 20260505005051 | 77 | 75 | 3.0 | 14.0 | 0.00 | 0.00 | 0.00 | 68 | 1006.6 |
| 20260505004556 | 77 | 76 | 3.0 | 14.0 | 0.00 | 0.00 | 0.00 | 67 | 1006.6 |
| 20260505004550 | 77 | 127 | 3.0 | 14.0 | 0.00 | 0.00 | 0.00 | 68 | 1006.6 |
| 20260505003551 | 78 | 141 | 3.0 | 12.0 | 0.00 | 0.00 | 0.00 | 66 | 1006.6 |
| 20260505003053 | 78 | 107 | 3.0 | 12.0 | 0.00 | 0.00 | 0.00 | 66 | 1006.7 |
| 20260505002549 | 78 | 240 | 4.0 | 12.0 | 0.00 | 0.00 | 0.00 | 65 | 1006.7 |
| 20260505002050 | 78 | 154 | 4.0 | 12.0 | 0.00 | 0.00 | 0.00 | 65 | 1006.6 |
| 20260505001548 | 78 | 162 | 4.0 | 12.0 | 0.00 | 0.00 | 0.00 | 64 | 1006.8 |
| 20260505001048 | 78 | 77 | 5.0 | 14.0 | 0.00 | 0.00 | 0.00 | 65 | 1006.8 |
| 20260505000548 | 78 | 127 | 6.0 | 14.0 | 0.00 | 0.00 | 0.00 | 64 | 1006.7 |
| 20260505000048 | 78 | 127 | 5.0 | 14.0 | 0.00 | 0.00 | 0.00 | 64 | 1006.7 |
| 20260504235546 | 78 | 101 | 5.0 | 14.0 | 0.00 | 0.00 | 0.00 | 64 | 1006.8 |
| 20260504235046 | 79 | 70 | 4.0 | 14.0 | 0.00 | 0.00 | 0.00 | 63 | 1006.8 |
| 20260504234549 | 79 | 164 | 4.0 | 12.0 | 0.00 | 0.00 | 0.00 | 64 | 1006.9 |
| 20260504234046 | 79 | 123 | 4.0 | 15.0 | 0.00 | 0.00 | 0.00 | 63 | 1007.1 |
| 20260504233548 | 79 | 148 | 5.0 | 15.0 | 0.00 | 0.00 | 0.00 | 63 | 1007.0 |
| 20260504233048 | 79 | 133 | 6.0 | 15.0 | 0.00 | 0.00 | 0.00 | 62 | 1007.0 |
| 20260504232548 | 79 | 237 | 5.0 | 15.0 | 0.00 | 0.00 | 0.00 | 61 | 1007.0 |
| 20260504232047 | 80 | 118 | 5.0 | 15.0 | 0.00 | 0.00 | 0.00 | 62 | 1006.9 |
| 20260504231548 | 80 | 134 | 6.0 | 17.0 | 0.00 | 0.00 | 0.00 | 61 | 1007.0 |
| 20260504231047 | 80 | 128 | 6.0 | 17.0 | 0.00 | 0.00 | 0.00 | 61 | 1007.2 |
| 20260504230547 | 80 | 193 | 6.0 | 22.0 | 0.00 | 0.00 | 0.00 | 60 | 1007.3 |
| 20260504230054 | 80 | 205 | 7.0 | 16.0 | 0.00 | 0.00 | 0.00 | 61 | 1007.3 |
| 20260504230048 | 80 | 201 | 6.0 | 22.0 | 0.00 | 0.00 | 0.00 | 60 | 1007.3 |
| 20260504225052 | 80 | 217 | 7.0 | 16.0 | 0.00 | 0.00 | 0.00 | 59 | 1007.4 |
| 20260504225048 | 80 | 146 | 8.0 | 16.0 | 0.00 | 0.00 | 0.00 | 60 | 1007.5 |
| 20260504224047 | 81 | 233 | 5.0 | 13.0 | 0.00 | 0.00 | 0.00 | 59 | 1007.4 |
| 20260504223547 | 81 | 213 | 5.0 | 13.0 | 0.00 | 0.00 | 0.00 | 57 | 1007.5 |
| 20260504223102 | 82 | 162 | 5.0 | 15.0 | 0.00 | 0.00 | 0.00 | 58 | 1007.3 |
| 20260504223051 | 82 | 116 | 4.0 | 15.0 | 0.00 | 0.00 | 0.00 | 57 | 1007.3 |
| 20260504222047 | 82 | 224 | 5.0 | 13.0 | 0.00 | 0.00 | 0.00 | 58 | 1007.4 |
| 20260504221548 | 81 | 193 | 5.0 | 13.0 | 0.00 | 0.00 | 0.00 | 59 | 1007.6 |
| 20260504221048 | 81 | 221 | 6.0 | 19.0 | 0.00 | 0.00 | 0.00 | 58 | 1007.7 |
| 20260504220545 | 82 | 194 | 7.0 | 19.0 | 0.00 | 0.00 | 0.00 | 57 | 1007.7 |
| 20260504220045 | 82 | 214 | 8.0 | 19.0 | 0.00 | 0.00 | 0.00 | 57 | 1007.7 |
| 20260504215544 | 82 | 198 | 7.0 | 19.0 | 0.00 | 0.00 | 0.00 | 57 | 1007.8 |
| 20260504215043 | 82 | 144 | 7.0 | 16.0 | 0.00 | 0.00 | 0.00 | 57 | 1007.7 |
| 20260504214544 | 82 | 165 | 7.0 | 16.0 | 0.00 | 0.00 | 0.00 | 58 | 1007.8 |
| 20260504214539 | 82 | 97 | 7.0 | 16.0 | 0.00 | 0.00 | 0.00 | 58 | 1007.8 |
| 20260504214201 | 82 | 158 | 6.0 | 15.0 | 0.00 | 0.00 | 0.00 | 58 | 1008.0 |
| 20260504213040 | 82 | 65 | 7.0 | 15.0 | 0.00 | 0.00 | 0.00 | 57 | 1007.9 |
| 20260504213035 | 82 | 141 | 7.0 | 16.0 | 0.00 | 0.00 | 0.00 | 57 | 1008.0 |
| 20260504212655 | 82 | 203 | 7.0 | 20.0 | 0.00 | 0.00 | 0.00 | 57 | 1008.1 |
| 20260504211535 | 82 | 151 | 7.0 | 20.0 | 0.00 | 0.00 | 0.00 | 57 | 1008.1 |
| 20260504211035 | 82 | 95 | 6.0 | 19.0 | 0.00 | 0.00 | 0.00 | 56 | 1008.2 |
| 20260504210534 | 82 | 227 | 6.0 | 17.0 | 0.00 | 0.00 | 0.00 | 57 | 1008.3 |
| 20260504210032 | 82 | 186 | 7.0 | 20.0 | 0.00 | 0.00 | 0.00 | 57 | 1008.5 |
| 20260504205533 | 81 | 168 | 7.0 | 20.0 | 0.00 | 0.00 | 0.00 | 57 | 1008.5 |
| 20260504205032 | 81 | 203 | 9.0 | 20.0 | 0.00 | 0.00 | 0.00 | 59 | 1008.7 |
| 20260504204536 | 81 | 240 | 8.0 | 20.0 | 0.00 | 0.00 | 0.00 | 57 | 1008.8 |
| 20260504204531 | 82 | 99 | 6.0 | 18.0 | 0.00 | 0.00 | 0.00 | 57 | 1008.9 |
| 20260504203532 | 82 | 146 | 6.0 | 18.0 | 0.00 | 0.00 | 0.00 | 58 | 1009.1 |
| 20260504203029 | 82 | 205 | 6.0 | 18.0 | 0.00 | 0.00 | 0.00 | 55 | 1009.2 |
| 20260504202528 | 81 | 232 | 6.0 | 15.0 | 0.00 | 0.00 | 0.00 | 56 | 1009.3 |
| 20260504202025 | 81 | 246 | 6.0 | 15.0 | 0.00 | 0.00 | 0.00 | 57 | 1009.3 |
| 20260504201533 | 81 | 172 | 6.0 | 18.0 | 0.00 | 0.00 | 0.00 | 55 | 1009.7 |
| 20260504201525 | 81 | 282 | 6.0 | 16.0 | 0.00 | 0.00 | 0.00 | 58 | 1009.6 |
| 20260504201025 | 80 | 205 | 7.0 | 18.0 | 0.00 | 0.00 | 0.00 | 59 | 1009.6 |
| 20260504200026 | 81 | 162 | 6.0 | 18.0 | 0.00 | 0.00 | 0.00 | 57 | 1009.9 |
| 20260504195525 | 81 | 193 | 6.0 | 18.0 | 0.00 | 0.00 | 0.00 | 55 | 1009.9 |
| 20260504195029 | 80 | 150 | 7.0 | 20.0 | 0.00 | 0.00 | 0.00 | 56 | 1010.0 |
| 20260504195025 | 80 | 245 | 6.0 | 15.0 | 0.00 | 0.00 | 0.00 | 57 | 1009.9 |
| 20260504194641 | 80 | 157 | 7.0 | 20.0 | 0.00 | 0.00 | 0.00 | 55 | 1010.0 |
| 20260504193522 | 80 | 243 | 8.0 | 20.0 | 0.00 | 0.00 | 0.00 | 54 | 1010.1 |
| 20260504193022 | 80 | 220 | 7.0 | 20.0 | 0.00 | 0.00 | 0.00 | 53 | 1010.1 |
| 20260504192528 | 80 | 173 | 6.0 | 19.0 | 0.00 | 0.00 | 0.00 | 52 | 1010.2 |
| 20260504192523 | 80 | 140 | 7.0 | 19.0 | 0.00 | 0.00 | 0.00 | 54 | 1010.2 |
| 20260504191523 | 80 | 221 | 6.0 | 16.0 | 0.00 | 0.00 | 0.00 | 54 | 1010.4 |
| 20260504191024 | 80 | 283 | 6.0 | 16.0 | 0.00 | 0.00 | 0.00 | 53 | 1010.5 |
| 20260504190522 | 80 | 134 | 6.0 | 16.0 | 0.00 | 0.00 | 0.00 | 55 | 1010.7 |
| 20260504190024 | 80 | 164 | 5.0 | 17.0 | 0.00 | 0.00 | 0.00 | 54 | 1010.6 |
| 20260504185520 | 80 | 193 | 6.0 | 17.0 | 0.00 | 0.00 | 0.00 | 52 | 1010.8 |
| 20260504185021 | 79 | 127 | 8.0 | 17.0 | 0.00 | 0.00 | 0.00 | 53 | 1010.8 |
| 20260504184521 | 79 | 129 | 7.0 | 17.0 | 0.00 | 0.00 | 0.00 | 54 | 1010.8 |
| 20260504184020 | 79 | 270 | 6.0 | 13.0 | 0.00 | 0.00 | 0.00 | 53 | 1010.9 |
| 20260504183520 | 79 | 134 | 6.0 | 15.0 | 0.00 | 0.00 | 0.00 | 54 | 1010.9 |
| 20260504183020 | 79 | 64 | 6.0 | 15.0 | 0.00 | 0.00 | 0.00 | 54 | 1011.2 |
| 20260504182521 | 78 | 201 | 7.0 | 19.0 | 0.00 | 0.00 | 0.00 | 56 | 1011.3 |
| 20260504182021 | 78 | 234 | 7.0 | 19.0 | 0.00 | 0.00 | 0.00 | 53 | 1011.1 |
| 20260504181520 | 78 | 165 | 7.0 | 19.0 | 0.00 | 0.00 | 0.00 | 53 | 1011.2 |
| 20260504181021 | 78 | 184 | 7.0 | 19.0 | 0.00 | 0.00 | 0.00 | 52 | 1011.3 |
| 20260504180519 | 78 | 117 | 6.0 | 19.0 | 0.00 | 0.00 | 0.00 | 52 | 1011.5 |
| 20260504180019 | 78 | 315 | 6.0 | 19.0 | 0.00 | 0.00 | 0.00 | 54 | 1011.6 |
| 20260504175523 | 78 | 217 | 7.0 | 19.0 | 0.00 | 0.00 | 0.00 | 52 | 1011.7 |
| 20260504175517 | 78 | 212 | 6.0 | 17.0 | 0.00 | 0.00 | 0.00 | 52 | 1011.6 |
| 20260504174519 | 78 | 207 | 7.0 | 19.0 | 0.00 | 0.00 | 0.00 | 51 | 1011.9 |
| 20260504174018 | 78 | 190 | 7.0 | 19.0 | 0.00 | 0.00 | 0.00 | 52 | 1011.9 |
| 20260504173520 | 77 | 262 | 8.0 | 19.0 | 0.00 | 0.00 | 0.00 | 50 | 1012.1 |
| 20260504173020 | 77 | 200 | 7.0 | 16.0 | 0.00 | 0.00 | 0.00 | 49 | 1012.0 |
| 20260504172518 | 77 | 174 | 7.0 | 17.0 | 0.00 | 0.00 | 0.00 | 48 | 1012.1 |
| 20260504172023 | 77 | 191 | 6.0 | 16.0 | 0.00 | 0.00 | 0.00 | 48 | 1012.2 |
| 20260504172019 | 77 | 203 | 7.0 | 17.0 | 0.00 | 0.00 | 0.00 | 47 | 1012.1 |
| 20260504171018 | 77 | 146 | 6.0 | 16.0 | 0.00 | 0.00 | 0.00 | 50 | 1012.6 |
| 20260504170518 | 76 | 167 | 6.0 | 16.0 | 0.00 | 0.00 | 0.00 | 51 | 1012.8 |
| 20260504151021 | 70 | 148 | 6.0 | 16.0 | 0.00 | 0.00 | 0.00 | 68 | 1013.8 |
| 20260504151016 | 71 | 217 | 6.0 | 16.0 | 0.00 | 0.00 | 0.00 | 66 | 1013.7 |
| 20260504141017 | 67 | 140 | 4.0 | 10.0 | 0.00 | 0.00 | 0.00 | 75 | 1014.2 |
| 20260504140517 | 66 | 262 | 3.0 | 10.0 | 0.00 | 0.00 | 0.00 | 76 | 1014.2 |
| 20260504110515 | 0 | 0.0 | 0.0 | 0.00 | 0.00 | 0.00 | 1013.4 | ||
| 20260504110418 | 0 | 0.0 | 0.0 | 0.00 | 0.00 | 0.00 | 1013.4 | ||
| 20260504081510 | 60 | 212 | 2.0 | 7.0 | 0.00 | 0.00 | 0.00 | 77 | 1014.1 |
| 20260504081008 | 60 | 215 | 2.0 | 6.0 | 0.00 | 0.00 | 0.00 | 77 | 1014.1 |
| 20260504080507 | 60 | 209 | 2.0 | 6.0 | 0.00 | 0.00 | 0.00 | 77 | 1014.1 |
| 20260504050452 | 64 | 124 | 1.0 | 5.0 | 0.00 | 0.00 | 0.00 | 69 | 1015.9 |
| 20260504045949 | 64 | 198 | 1.0 | 5.0 | 0.00 | 0.00 | 0.00 | 69 | 1015.9 |
| 20260504045447 | 64 | 115 | 1.0 | 5.0 | 0.00 | 0.00 | 0.00 | 69 | 1015.9 |
| 20260504044948 | 64 | 105 | 1.0 | 5.0 | 0.00 | 0.00 | 0.00 | 68 | 1016.0 |
| 20260504044447 | 64 | 341 | 1.0 | 4.0 | 0.00 | 0.00 | 0.00 | 68 | 1016.1 |
| 20260504043948 | 64 | 134 | 1.0 | 5.0 | 0.00 | 0.00 | 0.00 | 68 | 1016.1 |
| 20260504043448 | 64 | 134 | 1.0 | 7.0 | 0.00 | 0.00 | 0.00 | 67 | 1016.1 |
| 20260504042948 | 65 | 124 | 1.0 | 7.0 | 0.00 | 0.00 | 0.00 | 67 | 1016.1 |
| 20260504042452 | 65 | 139 | 2.0 | 5.0 | 0.00 | 0.00 | 0.00 | 66 | 1016.0 |
| 20260504042447 | 65 | 118 | 2.0 | 4.0 | 0.00 | 0.00 | 0.00 | 67 | 1016.0 |
| 20260504041447 | 65 | 134 | 1.0 | 5.0 | 0.00 | 0.00 | 0.00 | 66 | 1016.0 |
| 20260504040946 | 65 | 134 | 1.0 | 5.0 | 0.00 | 0.00 | 0.00 | 66 | 1016.0 |
| 20260504040444 | 65 | 148 | 1.0 | 5.0 | 0.00 | 0.00 | 0.00 | 66 | 1016.0 |